This is the latest recevied weather packets stored in our database for station/object EA1IXY-2. If no packets are shown the sender has not sent any weather packets the latest 10 day(s).
| Time | Temp. | Humidity | Pressure | Rain* | Wind** | Luminosity | Snow |
|---|---|---|---|---|---|---|---|
| 1777975254 | 38.33° C | 15% | 929 hPa | - | - | - | - |
| 1777974354 | 38.89° C | 15% | 929 hPa | - | - | - | - |
| 1777973454 | 38.33° C | 16% | 929 hPa | - | - | - | - |
| 1777972554 | 38.33° C | 15% | 929 hPa | - | - | - | - |
| 1777971654 | 38.89° C | 15% | 928.8 hPa | - | - | - | - |
| 1777970754 | 38.33° C | 15% | 928.9 hPa | - | - | - | - |
| 1777969854 | 38.89° C | 15% | 928.8 hPa | - | - | - | - |
| 1777968054 | 38.89° C | 15% | 929 hPa | - | - | - | - |
| 1777967154 | 38.33° C | 14% | 929 hPa | - | - | - | - |
| 1777966253 | 36.67° C | 14% | 927.7 hPa | - | - | - | - |
| 1777965342 | 35.56° C | 14% | 929.1 hPa | - | - | - | - |
| 1777964441 | 35.56° C | 15% | 928.9 hPa | - | - | - | - |
| 1777963541 | 38.33° C | 18% | 928.8 hPa | - | - | - | - |
| 1777962641 | 37.78° C | 17% | 928.7 hPa | - | - | - | - |
| 1777960841 | 37.78° C | 18% | 928.7 hPa | - | - | - | - |
| 1777959941 | 37.78° C | 18% | 928.7 hPa | - | - | - | - |
| 1777959041 | 37.78° C | 18% | 928.6 hPa | - | - | - | - |
| 1777958141 | 37.78° C | 18% | 928.6 hPa | - | - | - | - |
| 1777957241 | 37.78° C | 17% | 928.6 hPa | - | - | - | - |
| 1777956341 | 37.78° C | 17% | 928.6 hPa | - | - | - | - |
| 1777955441 | 36.67° C | 18% | 927.4 hPa | - | - | - | - |
| 1777953628 | 37.78° C | 17% | 928.9 hPa | - | - | - | - |
| 1777951828 | 37.78° C | 18% | 928.9 hPa | - | - | - | - |
| 1777950028 | 37.78° C | 17% | 929 hPa | - | - | - | - |
| 1777948228 | 37.78° C | 17% | 929 hPa | - | - | - | - |
* Rain since midnight (hover to see other rain measurements)
** Current wind speed in m/s (hover to see current wind gust speed)